Zurück zum Katalog

SL-14 R/B

AktivPO
NORAD 21785·ROCKET BODY·🇷🇺 Russia

Gestartet Nov 12, 1991 von Plesetsk Cosmodrome

Loading…

Nächste Überflüge (nächste 24 Stunden)

TLE

AktuellSource: Space-Track

Epoche: Sep 14, 2026, 21:53 UTC

1 21785U 91077G   26257.91225676  .00000009  00000-0 -11234-4 0  9992
2 21785  82.5978 309.8148 0038304 186.8453 358.4310 12.55091669596019

Verfolge SL-14 R/B in Echtzeit mit AllMySat

Download on the App Store